#timestamp,LO_Frequency,Hit,StdDev 
1510923615.7,286047001.5,N
1510923635.6,286047000.4,N
1510923655.4,286046998.3,N
1510923675.2,286046998.1,N
1510923725.1,286047000.6,E
1510923735.0,286047001.1,N
1510923735.9,286047001.1,P
1510923755.8,286047001.2,P
1510923775.6,286046998.3,Y
1510923795.5,286046999.9,P
1510923815.3,286047000.0,N
1510923835.1,286047000.3,N
1510923855.9,286047000.1,N
1510923875.7,286046999.2,N
1510923895.5,286046997.0,Y
1510923915.4,286046995.3,P
1510923935.2,286046995.3,N
1510923955.1,286046997.5,N
1510923956.0,286046997.5,N
1510923975.8,286046995.2,N
1510923995.6,286046997.4,N
1510924015.5,286046999.2,N
1510924035.3,286046996.8,N
1510924055.1,286046996.7,N
1510924075.9,286046996.8,N
1510924095.7,286046997.4,N
1510924115.6,286046997.1,N
1510924135.4,286046999.2,N
1510924155.2,286046996.5,N
1510924175.1,286046998.4,N
1510924176.0,286046998.4,N
1510924195.8,286047001.0,N
1510924215.6,286046998.5,N
1510924235.5,286046999.2,N
1510924255.3,286046998.1,N
1510924275.2,286047000.0,N
1510924295.0,286047000.8,N
1510924295.9,286047000.8,N
1510924315.7,286046998.7,N
1510924335.6,286046998.6,N
1510924355.4,286046998.8,N
1510924375.3,286047000.6,N
1510924395.1,286047000.0,N
1510924415.8,286046998.4,N
1510924435.7,286047001.1,N
1510924455.5,286047000.8,N
1510924475.4,286046998.1,N
1510924495.2,286046996.5,N
1510924515.0,286046998.4,N
1510924515.9,286046998.4,N
1510924535.8,286047001.1,N
1510924555.6,286046999.2,N
1510924575.4,286046997.2,N
1510924595.3,286046995.3,Y
1510924615.1,286046996.6,P
1510924635.9,286046999.1,N
1510924655.7,286046996.5,P
1510924675.5,286046998.9,N
1510924695.4,286046998.8,N
1510924715.2,286046999.6,N
1510924735.0,286046998.7,N
1510924735.9,286046998.7,N
1510924755.8,286046998.8,N
1510924775.6,286046999.0,N
1510924795.5,286046998.3,N
1510924815.3,286047001.0,N
1510924835.1,286047000.3,N
1510924855.9,286047001.2,N
1510924875.7,286047000.5,N
1510924895.6,286047001.1,N
1510924915.4,286046998.8,N
1510924935.2,286047001.2,N
1510924955.1,286047000.4,N
1510924956.0,286047000.4,N
1510924975.8,286046999.0,N
1510924995.6,286046996.6,N
1510925015.5,286046996.7,N
1510925035.3,286046996.6,N
1510925055.2,286046997.2,N
1510925075.9,286046995.3,Y
1510925095.7,286046996.9,P
1510925115.6,286046996.6,P
1510925135.4,286046998.9,N
1510925155.3,286047001.0,N
1510925175.1,286046999.9,N
1510925176.0,286046999.9,N
1510925195.8,286047000.1,N
1510925245.7,286047002.6,E
1510925255.6,286047000.5,N
1510925275.5,286046999.6,P
1510925295.3,286047000.7,N
1510925315.1,286046999.0,N
1510925335.9,286046999.4,N
1510925355.7,286046998.5,N
1510925375.6,286047001.0,N
1510925395.4,286046998.5,N
1510925415.2,286046998.5,N
1510925435.1,286046998.5,N
1510925436.0,286046998.5,N
1510925455.8,286046999.3,N
1510925475.7,286046998.5,N
1510925495.5,286047001.2,N
1510925515.3,286046999.8,N
1510925535.2,286047002.5,N
1510925555.0,286047001.0,N
1510925555.9,286047001.0,N
1510925575.8,286046998.1,N
1510925595.6,286047000.1,N
1510925615.5,286047000.5,N
1510925635.3,286047002.3,N
1510925655.1,286047002.0,N
1510925675.9,286047001.9,N
1510925695.7,286047001.9,N
1510925715.5,286047000.9,N
1510925735.4,286046999.8,N
1510925755.2,286047001.5,N
1510925775.1,286047001.3,N
1510925776.0,286047001.3,N
1510925795.8,286047001.5,N
1510925815.6,286047004.1,Y
1510925835.5,286047002.0,P
1510925855.3,286047002.6,N
1510925875.2,286046999.7,N
1510925895.9,286047000.8,N
1510925915.7,286046998.7,N
1510925935.6,286046997.0,N
1510925955.4,286046998.4,N
1510925975.2,286046998.2,N
1510925995.1,286046999.1,N
1510925996.0,286046999.1,N
1510926015.8,286046997.5,N
1510926035.7,286046996.9,N
1510926055.5,286046997.4,N
1510926075.3,286046997.8,N
1510926095.2,286046996.6,N
1510926115.0,286046998.4,N
1510926115.9,286046998.4,N
1510926135.8,286047001.2,N
1510926155.6,286046999.5,N
1510926175.4,286046998.8,N
1510926195.3,286046998.7,N
1510926215.1,286046998.4,N
1510926235.8,286046996.5,N
1510926255.7,286046999.4,N
1510926275.5,286046999.1,N
1510926295.4,286046998.2,N
1510926315.2,286046997.2,N
1510926335.0,286046998.3,N
1510926335.9,286046998.3,N
1510926355.8,286046999.2,N
1510926375.6,286046999.1,N
1510926395.5,286046995.7,Y
1510926415.3,286046996.9,P
1510926435.1,286046999.2,N
1510926455.9,286046999.0,N
1510926475.7,286046998.1,N
1510926495.5,286046998.8,N
1510926515.4,286046998.8,N
1510926535.2,286046999.5,N
1510926555.1,286046996.9,Y
1510926556.0,286046996.9,P
1510926575.8,286046998.8,N
1510926595.7,286047001.0,N
1510926615.5,286046998.2,N
1510926635.3,286047001.0,N
1510926655.2,286047000.9,N
1510926675.9,286047000.3,N
1510926695.7,286046999.9,N
1510926715.6,286047000.8,N
1510926735.4,286046998.2,N
1510926755.3,286046999.1,N
1510926775.1,286046999.6,N
1510926776.0,286046999.6,N
1510926795.8,286046997.7,N
1510926815.7,286046997.0,N
1510926835.5,286046999.5,N
1510926855.4,286046996.9,N
1510926875.2,286046998.9,N
1510926895.0,286046999.6,N
1510926895.9,286046999.6,N
1510926915.8,286046998.1,N
1510926935.6,286046997.0,N
1510926955.5,286046997.0,N
1510926975.3,286046997.2,N
1510926995.1,286046997.6,N
1510927015.9,286046995.0,Y
1510927035.7,286046995.4,P
1510927055.6,286046998.0,N
1510927075.4,286046997.4,N
1510927095.2,286046997.5,N
1510927115.1,286046999.5,N
1510927116.0,286046999.5,N
1510927135.8,286046999.6,N
1510927155.7,286046997.1,N
1510927175.5,286046996.9,N
1510927195.3,286046999.0,N
